When you browse on this site, cookies collect data to enhance your experience and personalize the content and advertising you see.
Visit our Privacy Policy to learn more. By continuing to use the site, you agree to this use of cookies and data.
  • în România
  • Lista ţărilor
  • Pe 7 zile
  • Temperatura apei
  • Hartă satelitară
  • Meteo pe hartă
  • Widget-uri
  • user-avatar
    Intrare

    Meteo pe oră la Lognes

    Astăzi, 27 Iunie, Joi

    Timp Temperatura Precipitaţii Vânt Presiune Umiditate
    00:00 +23°C° 0 mm 5 m/s 761 mmHg 84%
    01:00 +23°C° 0 mm 5 m/s 761 mmHg 86%
    02:00 +22°C° 0 mm 5 m/s 760 mmHg 89%
    03:00 +21°C° 0 mm 5 m/s 760 mmHg 91%
    04:00 +22°C° 0 mm 4 m/s 761 mmHg 89%
    05:00 +22°C° 0 mm 4 m/s 761 mmHg 88%
    06:00 +22°C° 0 mm 4 m/s 761 mmHg 86%
    07:00 +25°C° 0 mm 5 m/s 761 mmHg 82%
    08:00 +26°C° 0 mm 5 m/s 761 mmHg 79%
    09:00 +28°C° 0 mm 5 m/s 761 mmHg 75%
    10:00 +29°C° 0 mm 5 m/s 761 mmHg 72%
    11:00 +32°C° 0 mm 5 m/s 761 mmHg 70%
    12:00 +33°C° 0 mm 5 m/s 761 mmHg 67%
    13:00 +33°C° 0 mm 5 m/s 761 mmHg 66%
    14:00 +33°C° 0 mm 5 m/s 761 mmHg 65%
    15:00 +34°C° 0 mm 6 m/s 760 mmHg 64%
    16:00 +32°C° 0 mm 6 m/s 760 mmHg 66%
    17:00 +30°C° 0 mm 6 m/s 760 mmHg 68%
    18:00 +29°C° 0 mm 6 m/s 760 mmHg 70%
    19:00 +27°C° 0 mm 5 m/s 760 mmHg 68%
    20:00 +26°C° 0 mm 5 m/s 760 mmHg 67%
    21:00 +23°C° 0 mm 5 m/s 760 mmHg 65%
    22:00 +22°C° 0 mm 5 m/s 761 mmHg 64%
    23:00 +22°C° 0 mm 4 m/s 761 mmHg 62%

    Mâine, 28 Iunie, Vineri

    Timp Temperatura Precipitaţii Vânt Presiune Umiditate
    00:00 +21°C° 0 mm 4 m/s 761 mmHg 61%
    01:00 +20°C° 0 mm 4 m/s 760 mmHg 62%
    02:00 +19°C° 0 mm 4 m/s 760 mmHg 64%
    03:00 +19°C° 0 mm 4 m/s 760 mmHg 65%
    04:00 +19°C° 0 mm 4 m/s 760 mmHg 67%
    05:00 +19°C° 0 mm 4 m/s 760 mmHg 68%
    06:00 +19°C° 0 mm 4 m/s 760 mmHg 69%
    07:00 +21°C° 0 mm 4 m/s 760 mmHg 66%
    08:00 +23°C° 0 mm 4 m/s 760 mmHg 64%
    09:00 +25°C° 0 mm 4 m/s 760 mmHg 61%
    10:00 +27°C° 0 mm 4 m/s 760 mmHg 57%
    11:00 +28°C° 0 mm 4 m/s 759 mmHg 54%
    12:00 +30°C° 0 mm 4 m/s 759 mmHg 51%
    13:00 +30°C° 0 mm 4 m/s 759 mmHg 51%
    14:00 +30°C° 0 mm 4 m/s 759 mmHg 52%
    15:00 +32°C° 0 mm 4 m/s 759 mmHg 52%
    16:00 +30°C° 0 mm 4 m/s 758 mmHg 56%
    17:00 +29°C° 0 mm 4 m/s 758 mmHg 60%
    18:00 +28°C° 0 mm 3 m/s 758 mmHg 64%
    19:00 +27°C° 0 mm 3 m/s 758 mmHg 66%
    20:00 +25°C° 0 mm 3 m/s 758 mmHg 68%
    21:00 +24°C° 0 mm 3 m/s 758 mmHg 70%
    22:00 +22°C° 0 mm 3 m/s 758 mmHg 70%
    23:00 +21°C° 0 mm 3 m/s 758 mmHg 69%

    Poimâine, 29 Iunie, Sâmbătă

    Timp Temperatura Precipitaţii Vânt Presiune Umiditate
    00:00 +21°C° 0 mm 3 m/s 758 mmHg 69%
    01:00 +20°C° 0 mm 3 m/s 757 mmHg 68%
    02:00 +20°C° 0 mm 3 m/s 757 mmHg 67%
    03:00 +19°C° 0 mm 2 m/s 757 mmHg 66%
    04:00 +19°C° 0 mm 3 m/s 757 mmHg 65%
    05:00 +20°C° 0 mm 3 m/s 757 mmHg 65%
    06:00 +20°C° 0 mm 3 m/s 756 mmHg 65%
    07:00 +22°C° 0 mm 3 m/s 756 mmHg 63%
    08:00 +25°C° 0 mm 3 m/s 756 mmHg 60%
    09:00 +27°C° 0 mm 3 m/s 756 mmHg 58%
    10:00 +28°C° 0 mm 3 m/s 756 mmHg 54%
    11:00 +30°C° 0 mm 3 m/s 756 mmHg 50%
    12:00 +33°C° 0 mm 3 m/s 755 mmHg 46%
    13:00 +33°C° 0 mm 3 m/s 755 mmHg 46%
    14:00 +34°C° 0 mm 3 m/s 755 mmHg 47%
    15:00 +34°C° 0 mm 3 m/s 755 mmHg 47%
    16:00 +33°C° 0 mm 3 m/s 754 mmHg 51%
    17:00 +33°C° 0 mm 3 m/s 754 mmHg 55%
    18:00 +31°C° 0 mm 2 m/s 754 mmHg 59%
    19:00 +30°C° 0 mm 2 m/s 754 mmHg 63%
    20:00 +28°C° 0 mm 2 m/s 754 mmHg 67%
    21:00 +26°C° 0 mm 2 m/s 755 mmHg 72%
    22:00 +26°C° 0 mm 2 m/s 755 mmHg 74%
    23:00 +25°C° 0 mm 2 m/s 755 mmHg 77%

    30 Iunie, Duminică

    Timp Temperatura Precipitaţii Vânt Presiune Umiditate
    00:00 +24°C° 0 mm 2 m/s 755 mmHg 80%
    01:00 +24°C° 0 mm 2 m/s 755 mmHg 82%
    02:00 +22°C° 0 mm 3 m/s 755 mmHg 85%
    03:00 +21°C° 0 mm 3 m/s 755 mmHg 88%
    04:00 +21°C° 0 mm 3 m/s 755 mmHg 86%
    05:00 +21°C° 0 mm 3 m/s 756 mmHg 85%
    06:00 +21°C° 0 mm 3 m/s 756 mmHg 83%
    07:00 +22°C° 0 mm 3 m/s 756 mmHg 74%
    08:00 +25°C° 0 mm 3 m/s 757 mmHg 64%
    09:00 +26°C° 0 mm 3 m/s 757 mmHg 55%
    10:00 +27°C° 0 mm 2 m/s 757 mmHg 52%
    11:00 +28°C° 0 mm 2 m/s 757 mmHg 48%
    12:00 +29°C° 0 mm 2 m/s 757 mmHg 45%
    13:00 +29°C° 0 mm 2 m/s 757 mmHg 45%
    14:00 +29°C° 0 mm 3 m/s 757 mmHg 45%
    15:00 +30°C° 0 mm 3 m/s 757 mmHg 45%
    16:00 +29°C° 0 mm 3 m/s 757 mmHg 49%
    17:00 +28°C° 0 mm 3 m/s 757 mmHg 53%
    18:00 +27°C° 0 mm 3 m/s 757 mmHg 57%
    19:00 +25°C° 0 mm 3 m/s 758 mmHg 62%
    20:00 +24°C° 0 mm 3 m/s 758 mmHg 68%
    21:00 +21°C° 0 mm 2 m/s 758 mmHg 73%
    22:00 +20°C° 0 mm 2 m/s 758 mmHg 76%
    23:00 +19°C° 0 mm 2 m/s 758 mmHg 79%

    1 Iulie, Luni

    Timp Temperatura Precipitaţii Vânt Presiune Umiditate
    00:00 +18°C° 0 mm 2 m/s 758 mmHg 81%
    01:00 +18°C° 0 mm 2 m/s 758 mmHg 81%
    02:00 +17°C° 0 mm 2 m/s 758 mmHg 80%
    03:00 +17°C° 0 mm 2 m/s 758 mmHg 80%
    04:00 +17°C° 0 mm 2 m/s 759 mmHg 78%
    05:00 +17°C° 0 mm 2 m/s 759 mmHg 77%
    06:00 +17°C° 0 mm 2 m/s 759 mmHg 75%
    07:00 +19°C° 0 mm 2 m/s 759 mmHg 70%
    08:00 +20°C° 0 mm 2 m/s 759 mmHg 64%
    09:00 +21°C° 0 mm 2 m/s 760 mmHg 58%
    10:00 +24°C° 0 mm 2 m/s 760 mmHg 53%
    11:00 +25°C° 0 mm 2 m/s 760 mmHg 48%
    12:00 +26°C° 0 mm 2 m/s 760 mmHg 43%
    13:00 +26°C° 0 mm 3 m/s 760 mmHg 45%
    14:00 +26°C° 0 mm 3 m/s 759 mmHg 47%
    15:00 +26°C° 0 mm 4 m/s 759 mmHg 48%
    16:00 +25°C° 0 mm 4 m/s 759 mmHg 53%
    17:00 +23°C° 0 mm 4 m/s 759 mmHg 57%
    18:00 +23°C° 0 mm 4 m/s 759 mmHg 61%
    19:00 +21°C° 0 mm 4 m/s 760 mmHg 65%
    20:00 +19°C° 0 mm 3 m/s 760 mmHg 70%
    21:00 +17°C° 0 mm 3 m/s 760 mmHg 75%
    22:00 +16°C° 0 mm 3 m/s 761 mmHg 77%
    23:00 +14°C° 0 mm 3 m/s 761 mmHg 79%

    2 Iulie, Marţi

    Timp Temperatura Precipitaţii Vânt Presiune Umiditate
    00:00 +14°C° 0 mm 2 m/s 761 mmHg 80%
    01:00 +13°C° 0 mm 2 m/s 761 mmHg 82%
    02:00 +13°C° 0 mm 2 m/s 760 mmHg 84%
    03:00 +13°C° 0 mm 2 m/s 760 mmHg 86%
    04:00 +14°C° 0 mm 2 m/s 760 mmHg 85%
    05:00 +14°C° 0 mm 2 m/s 761 mmHg 83%
    06:00 +15°C° 0 mm 2 m/s 761 mmHg 82%
    07:00 +17°C° 0 mm 2 m/s 761 mmHg 75%
    08:00 +19°C° 0 mm 2 m/s 761 mmHg 69%
    09:00 +20°C° 0 mm 2 m/s 761 mmHg 62%
    10:00 +21°C° 0 mm 3 m/s 761 mmHg 58%
    11:00 +22°C° 0 mm 3 m/s 760 mmHg 54%
    12:00 +25°C° 0 mm 3 m/s 760 mmHg 51%
    13:00 +25°C° 0 mm 3 m/s 760 mmHg 51%
    14:00 +25°C° 0 mm 4 m/s 760 mmHg 52%
    15:00 +25°C° 0 mm 4 m/s 760 mmHg 52%
    16:00 +23°C° 0 mm 4 m/s 760 mmHg 55%
    17:00 +23°C° 0 mm 4 m/s 759 mmHg 59%
    18:00 +22°C° 0 mm 4 m/s 759 mmHg 62%
    19:00 +21°C° 0 mm 4 m/s 759 mmHg 66%
    20:00 +19°C° 0 mm 3 m/s 760 mmHg 70%
    21:00 +18°C° 0 mm 3 m/s 760 mmHg 75%
    22:00 +17°C° 0 mm 3 m/s 760 mmHg 78%
    23:00 +16°C° 0 mm 3 m/s 760 mmHg 81%
    Arată mai mult